Pensacola, FL NWLON current weather conditions

sailwx.info

Wind from 308 at 2 knots gusting 3

Air temperature 5.6° C

Last reported at 2020-Jan-25 13:48 UTC.
Time now 2020-Jan-25 14:17 UTC

Location: N 30°24' W 087°13'.
View on Google Maps.

See reports from other nearby stations

  
Tides and Currents Weather Stations Pressure Air Temp Water Temp Dewpoint Dewpoint Depression Visibility Wind Speed Wind Dir Waves Ship Positions
date/time (UTC)wind fromknots sea level pressurealtimeterstation pressurevisibilityair tempwater tempwave heightnotes
2020-Jan-25 13:48 308 2 gusting 3 5.6
2020-Jan-25 13:42 276 2 gusting 3 5.6
2020-Jan-25 13:36 306 2 gusting 3 5.6
2020-Jan-25 13:30 302 2 gusting 3 5.6
2020-Jan-25 13:24 294 2 gusting 3 5.6
2020-Jan-25 13:18 296 2 gusting 3 5.0
2020-Jan-25 13:12 298 1 gusting 3 5.0
2020-Jan-25 13:06 300 1 gusting 3 5.0
2020-Jan-25 13:00 306 2 gusting 2 5.0
2020-Jan-25 12:48 314 1 gusting 3 5.0
2020-Jan-25 12:42 302 1 gusting 3 5.0
2020-Jan-25 12:36 300 1 gusting 3 5.0
2020-Jan-25 12:30 277 1 gusting 2 5.6
2020-Jan-25 12:24 291 1 gusting 2 5.0
2020-Jan-25 12:18 291 1 gusting 1 5.0
2020-Jan-25 12:12 290 1 gusting 1 5.0
2020-Jan-25 12:06 291 0 gusting 1 5.6
2020-Jan-25 12:00 296 1 gusting 2 5.6
2020-Jan-25 11:54 287 1 gusting 2 5.6
2020-Jan-25 11:48 300 1 gusting 2 5.6
2020-Jan-25 11:42 313 0 gusting 1 5.6
2020-Jan-25 11:36 294 0 gusting 1 5.6
2020-Jan-25 11:30 293 5.6
2020-Jan-25 11:24 306 0 gusting 1 5.6
2020-Jan-25 11:18 314 0 gusting 1 6.1
2020-Jan-25 11:12 358 1 gusting 2 6.1
2020-Jan-25 11:06 017 1 gusting 2 6.1
2020-Jan-25 11:00 005 2 gusting 3 6.1
2020-Jan-25 10:54 009 1 gusting 2 6.1
2020-Jan-25 10:48 001 2 gusting 3 6.1
2020-Jan-25 10:42 014 1 gusting 2 6.1
2020-Jan-25 10:36 020 1 gusting 2 6.1
2020-Jan-25 10:30 009 1 gusting 4 6.7
2020-Jan-25 10:24 009 2 gusting 3 6.7
2020-Jan-25 10:18 357 1 gusting 4 6.7
2020-Jan-25 10:12 359 2 gusting 4 6.7
2020-Jan-25 10:06 012 2 gusting 5 6.7
2020-Jan-25 10:00 355 1 gusting 5 6.7
2020-Jan-25 09:54 015 2 gusting 5 6.7
2020-Jan-25 09:48 005 2 gusting 5 6.7
2020-Jan-25 09:42 003 2 gusting 4 6.7
2020-Jan-25 09:36 357 5 gusting 7 6.7
2020-Jan-25 09:30 359 3 gusting 8 6.7
2020-Jan-25 09:24 005 5 gusting 8 7.2
2020-Jan-25 09:18 008 5 gusting 7 7.2
2020-Jan-25 09:12 002 4 gusting 7 7.2
2020-Jan-25 09:06 005 3 gusting 11 7.2
2020-Jan-25 09:00 004 5 gusting 11 7.2
2020-Jan-25 08:54 359 6 gusting 8 7.2
2020-Jan-25 08:48 005 4 gusting 7 7.2
2020-Jan-25 08:42 355 5 gusting 7 7.2
2020-Jan-25 08:36 020 4 gusting 6 7.8
2020-Jan-25 08:30 017 2 gusting 6 7.2
2020-Jan-25 08:24 013 3 gusting 6 7.8
2020-Jan-25 08:18 008 3 gusting 6 7.8
2020-Jan-25 08:12 360 3 gusting 6 7.8
2020-Jan-25 08:06 007 4 gusting 6 7.8
2020-Jan-25 08:00 004 4 gusting 7 7.8
2020-Jan-25 07:54 359 4 gusting 6 7.8
2020-Jan-25 07:48 001 3 gusting 6 8.3
2020-Jan-25 07:42 358 4 gusting 7 8.3
2020-Jan-25 07:36 004 5 gusting 7 8.3
2020-Jan-25 07:30 349 4 gusting 7 8.3
2020-Jan-25 07:24 353 3 gusting 8 8.3
2020-Jan-25 07:18 357 6 gusting 11 8.3
2020-Jan-25 07:12 346 5 gusting 11 8.9
2020-Jan-25 07:06 350 5 gusting 9 8.9
2020-Jan-25 07:00 344 5 gusting 9 8.9
2020-Jan-25 06:54 339 5 gusting 7 8.9
2020-Jan-25 06:48 348 6 gusting 9 9.4
2020-Jan-25 06:42 351 6 gusting 9 9.4
2020-Jan-25 06:36 355 6 gusting 9 9.4
2020-Jan-25 06:30 354 6 gusting 12 9.4
2020-Jan-25 06:24 359 5 gusting 10 9.4
2020-Jan-25 06:18 353 5 gusting 8 9.4
2020-Jan-25 06:12 350 5 gusting 9 9.4
2020-Jan-25 06:06 349 5 gusting 8 10.0
2020-Jan-25 06:00 333 5 gusting 8 10.0
2020-Jan-25 05:54 331 5 gusting 8 10.0
2020-Jan-25 05:48 329 5 gusting 7 10.0
2020-Jan-25 05:42 327 4 gusting 7 10.0
2020-Jan-25 05:36 326 5 gusting 10 10.0
2020-Jan-25 05:30 321 7 gusting 10 10.6
2020-Jan-25 05:24 330 6 gusting 11 10.6
2020-Jan-25 05:18 322 5 gusting 10 10.6
2020-Jan-25 05:12 318 6 gusting 8 11.1
2020-Jan-25 05:06 305 6 gusting 8 11.1
2020-Jan-25 05:00 302 6 gusting 9 11.1
2020-Jan-25 04:54 300 5 gusting 7 11.1
2020-Jan-25 04:48 304 4 gusting 6 11.1
2020-Jan-25 04:42 290 3 gusting 6 11.1
2020-Jan-25 04:36 288 3 gusting 5 11.1
2020-Jan-25 04:30 279 4 gusting 6 11.1
2020-Jan-25 04:24 286 3 gusting 6 11.1
2020-Jan-25 04:18 288 2 gusting 5 11.1
2020-Jan-25 04:12 300 3 gusting 6 11.1
2020-Jan-25 04:06 302 4 gusting 6 11.1
2020-Jan-25 04:00 309 5 gusting 7 11.1
2020-Jan-25 03:54 305 4 gusting 6 11.1
2020-Jan-25 03:48 307 4 gusting 5 11.1
2020-Jan-25 03:42 308 4 gusting 6 11.1
2020-Jan-25 03:36 297 3 gusting 6 11.1
2020-Jan-25 03:30 276 5 gusting 7 11.7
2020-Jan-25 03:24 279 6 gusting 8 11.7
2020-Jan-25 03:18 286 4 gusting 7 11.7
2020-Jan-25 03:12 286 5 gusting 6 11.7
2020-Jan-25 03:06 280 4 gusting 7 11.7
2020-Jan-25 03:00 277 4 gusting 6 11.7
2020-Jan-25 02:54 292 4 gusting 6 11.7
2020-Jan-25 02:48 293 3 gusting 7 11.7
2020-Jan-25 02:42 302 4 gusting 6 11.7
2020-Jan-25 02:36 281 5 gusting 7 12.2
2020-Jan-25 02:30 294 3 gusting 7 12.2
2020-Jan-25 02:24 278 5 gusting 6 12.2
2020-Jan-25 02:18 275 5 gusting 8 12.2
2020-Jan-25 02:12 277 6 gusting 9 12.2
2020-Jan-25 02:06 278 5 gusting 9 12.2
2020-Jan-25 02:00 276 6 gusting 10 12.2
2020-Jan-25 01:54 280 6 gusting 9 12.2
2020-Jan-25 01:48 278 6 gusting 8 12.2
2020-Jan-25 01:42 279 4 gusting 6 12.2
2020-Jan-25 01:36 258 2 gusting 4 12.2
2020-Jan-25 01:30 269 1 gusting 4 12.2
2020-Jan-25 01:24 244 2 gusting 5 12.2
2020-Jan-25 01:18 243 2 gusting 4 12.2
2020-Jan-25 01:12 270 1 gusting 4 12.2
2020-Jan-25 01:06 282 3 gusting 6 12.8
2020-Jan-25 01:00 255 2 gusting 5 12.8
2020-Jan-25 00:54 254 2 gusting 5 12.8
2020-Jan-25 00:48 242 2 gusting 4 12.8
2020-Jan-25 00:42 258 1 gusting 5 12.8
2020-Jan-25 00:36 246 3 gusting 7 13.3
2020-Jan-25 00:30 284 5 gusting 7 13.3
2020-Jan-25 00:24 286 6 gusting 9 13.3
2020-Jan-25 00:18 286 7 gusting 10 13.3
2020-Jan-25 00:12 278 6 gusting 9 13.3
2020-Jan-25 00:06 281 6 gusting 9 13.3
2020-Jan-25 00:00 285 6 gusting 9 13.9
2020-Jan-24 23:48 277 6 gusting 9 13.9
2020-Jan-24 23:42 275 4 gusting 7 14.4
2020-Jan-24 23:36 266 3 gusting 7 14.4
2020-Jan-24 23:30 249 4 gusting 8 14.4
2020-Jan-24 23:24 253 6 gusting 9 14.4
2020-Jan-24 23:18 260 4 gusting 7 14.4
2020-Jan-24 23:12 246 3 gusting 6 16.1
2020-Jan-24 23:06 285 4 gusting 7 16.1
2020-Jan-24 23:00 271 3 gusting 7 16.1
2020-Jan-24 22:54 288 4 gusting 8 16.7
2020-Jan-24 22:48 286 6 gusting 9 16.7
2020-Jan-24 22:42 288 6 gusting 9 16.7
2020-Jan-24 22:36 273 6 gusting 10 17.2
2020-Jan-24 22:30 277 5 gusting 12 17.2
2020-Jan-24 22:24 276 6 gusting 9 17.2
2020-Jan-24 22:18 278 6 gusting 8 17.2
2020-Jan-24 22:12 286 4 gusting 7 17.2
2020-Jan-24 22:06 273 6 gusting 9 17.2
2020-Jan-24 22:00 284 6 gusting 10 17.8
2020-Jan-24 21:54 260 4 gusting 7 17.8
2020-Jan-24 21:48 252 4 gusting 7 17.8
2020-Jan-24 21:42 274 5 gusting 7 17.8
2020-Jan-24 21:36 284 3 gusting 5 17.8
2020-Jan-24 21:30 307 5 gusting 9 17.2
2020-Jan-24 21:24 298 5 gusting 10 17.2
2020-Jan-24 21:18 282 6 gusting 10 17.8
2020-Jan-24 21:12 284 3 gusting 7 17.8
2020-Jan-24 21:06 305 7 gusting 9 17.2
2020-Jan-24 21:00 299 5 gusting 7 17.8
2020-Jan-24 20:54 330 5 gusting 8 17.8
2020-Jan-24 20:48 317 6 gusting 9 17.2
2020-Jan-24 20:42 331 5 gusting 9 17.8
2020-Jan-24 20:36 338 6 gusting 11 17.2
2020-Jan-24 20:30 316 5 gusting 7 17.8
2020-Jan-24 20:24 297 5 gusting 11 17.2
2020-Jan-24 20:18 318 6 gusting 11 17.2
2020-Jan-24 20:12 313 6 gusting 9 17.2
2020-Jan-24 20:06 335 7 gusting 11 17.2
2020-Jan-24 20:00 338 5 gusting 11 17.8
2020-Jan-24 19:54 328 5 gusting 9 17.2
2020-Jan-24 19:48 326 5 gusting 9 17.2
2020-Jan-24 19:42 349 7 gusting 12 17.2
2020-Jan-24 19:36 292 5 gusting 12 16.7
2020-Jan-24 19:30 313 6 gusting 9 16.7
2020-Jan-24 19:24 326 5 gusting 14 17.2
2020-Jan-24 19:18 311 8 gusting 13 16.7
2020-Jan-24 19:12 309 8 gusting 11 16.1
2020-Jan-24 19:06 317 5 gusting 9 16.7
2020-Jan-24 19:00 328 5 gusting 11 16.7
2020-Jan-24 18:54 333 6 gusting 13 16.7
2020-Jan-24 18:48 338 7 gusting 15 16.7
2020-Jan-24 18:42 321 6 gusting 12 16.1
2020-Jan-24 18:36 330 8 gusting 13 16.1
2020-Jan-24 18:30 319 5 gusting 13 16.1
2020-Jan-24 18:24 310 8 gusting 12 15.6
2020-Jan-24 18:18 313 4 gusting 11 15.6
2020-Jan-24 18:12 339 7 gusting 12 15.6
2020-Jan-24 18:06 325 8 gusting 12 15.0
2020-Jan-24 18:00 320 5 gusting 8 15.6
2020-Jan-24 17:54 309 5 gusting 8 15.0
2020-Jan-24 17:48 280 5 gusting 9 15.0
2020-Jan-24 17:42 313 8 gusting 13 14.4
2020-Jan-24 17:36 308 3 gusting 12 14.4
2020-Jan-24 17:30 307 4 gusting 11 13.9
2020-Jan-24 17:24 301 6 gusting 11 13.9
2020-Jan-24 17:18 307 5 gusting 9 13.3
2020-Jan-24 17:12 319 6 gusting 12 13.9
2020-Jan-24 17:06 305 6 gusting 12 13.9
2020-Jan-24 17:00 316 7 gusting 12 13.9
2020-Jan-24 16:54 309 6 gusting 9 13.9
2020-Jan-24 16:48 306 4 gusting 10 13.9
2020-Jan-24 16:42 297 6 gusting 8 13.9
2020-Jan-24 16:36 295 4 gusting 7 13.9
2020-Jan-24 16:30 303 5 gusting 8 13.9
2020-Jan-24 16:24 312 5 gusting 9 13.9
2020-Jan-24 16:18 313 4 gusting 8 13.9
2020-Jan-24 16:12 301 4 gusting 7 13.9
2020-Jan-24 16:06 319 3 gusting 7 13.9
2020-Jan-24 16:00 301 5 gusting 7 13.3
2020-Jan-24 15:54 314 6 gusting 9 13.3
2020-Jan-24 15:48 314 6 gusting 10 13.3
2020-Jan-24 15:42 329 4 gusting 9 13.3
2020-Jan-24 15:36 305 6 gusting 9 13.3
2020-Jan-24 15:30 316 6 gusting 9 13.3
2020-Jan-24 15:24 323 6 gusting 10 13.3
2020-Jan-24 15:18 335 7 gusting 12 13.3
2020-Jan-24 15:12 328 5 gusting 10 13.3
2020-Jan-24 15:06 327 6 gusting 11 13.3
2020-Jan-24 15:00 327 7 gusting 11 13.3
2020-Jan-24 14:54 321 5 gusting 12 13.3
2020-Jan-24 14:48 323 7 gusting 11 12.8
2020-Jan-24 14:42 328 7 gusting 13 12.8
2020-Jan-24 14:36 311 7 gusting 11 12.8
2020-Jan-24 14:30 327 5 gusting 9 12.8
2020-Jan-24 14:24 320 7 gusting 11 12.8
2020-Jan-24 14:18 312 7 gusting 11 12.8
2020-Jan-24 14:12 321 6 gusting 9 12.8
2020-Jan-24 14:06 323 5 gusting 11 12.8
2020-Jan-24 14:00 325 6 gusting 8 12.8
2020-Jan-24 13:54 310 5 gusting 10 12.8
2020-Jan-24 13:48 327 5 gusting 10 12.8
2020-Jan-24 13:42 333 6 gusting 9 12.8
2020-Jan-24 13:36 328 6 gusting 9 12.8
2020-Jan-24 13:30 319 5 gusting 8 12.8
2020-Jan-24 13:24 317 4 gusting 9 12.8
2020-Jan-24 13:18 313 4 gusting 7 12.8
2020-Jan-24 13:12 325 6 gusting 9 13.3
2020-Jan-24 13:06 330 5 gusting 8 13.3
2020-Jan-24 13:00 290 3 gusting 5 13.3
2020-Jan-24 12:54 317 3 gusting 6 13.3
2020-Jan-24 12:48 312 3 gusting 6 13.9
2020-Jan-24 12:42 306 3 gusting 4 13.9
2020-Jan-24 12:36 301 3 gusting 5 13.9
2020-Jan-24 12:30 315 3 gusting 6 13.9
2020-Jan-24 12:24 324 3 gusting 9 13.9
2020-Jan-24 12:18 324 5 gusting 8 13.9
2020-Jan-24 12:12 310 5 gusting 7 14.4
2020-Jan-24 12:06 303 5 gusting 8 14.4
2020-Jan-24 12:00 311 5 gusting 8 14.4
2020-Jan-24 11:54 308 4 gusting 6 14.4
2020-Jan-24 11:48 306 4 gusting 6 14.4
2020-Jan-24 11:42 312 4 gusting 6 14.4
2020-Jan-24 11:36 298 3 gusting 6 14.4
2020-Jan-24 11:30 284 3 gusting 5 14.4
2020-Jan-24 11:24 286 2 gusting 6 14.4
2020-Jan-24 11:18 280 3 gusting 7 14.4
2020-Jan-24 11:12 277 3 gusting 4 14.4
2020-Jan-24 11:06 299 2 gusting 4 14.4
2020-Jan-24 11:00 302 3 gusting 5 14.4
2020-Jan-24 10:54 307 1 gusting 3 13.9
2020-Jan-24 10:48 299 1 gusting 2 13.9
2020-Jan-24 10:42 295 1 gusting 2 13.3
2020-Jan-24 10:36 286 0 gusting 1 12.8
2020-Jan-24 10:30 278 13.3
2020-Jan-24 10:24 218 0 gusting 1 13.3
2020-Jan-24 10:18 235 0 gusting 1 13.3
2020-Jan-24 10:12 264 0 gusting 1 13.3
2020-Jan-24 10:06 236 1 gusting 2 13.3
2020-Jan-24 10:00 227 0 gusting 2 13.3
2020-Jan-24 09:54 306 2 gusting 3 14.4
2020-Jan-24 09:48 314 1 gusting 2 13.9
2020-Jan-24 09:42 302 1 gusting 2 13.9
2020-Jan-24 09:36 310 1 gusting 2 13.9
2020-Jan-24 09:30 306 1 gusting 1 13.9
2020-Jan-24 09:24 287 0 gusting 1 13.9
2020-Jan-24 09:18 304 0 gusting 1 13.9
2020-Jan-24 09:12 308 0 gusting 1 13.9
2020-Jan-24 09:06 308 0 gusting 1 13.3
2020-Jan-24 09:00 318 13.3
2020-Jan-24 08:54 325 0 gusting 1 13.3
2020-Jan-24 08:48 349 0 gusting 1 13.3
2020-Jan-24 08:42 342 0 gusting 0 13.3
2020-Jan-24 08:36 342 0 gusting 0 13.3
2020-Jan-24 08:30 041 13.3
2020-Jan-24 08:24 042 13.3
2020-Jan-24 08:18 039 13.3
2020-Jan-24 08:12 069 13.9
2020-Jan-24 08:06 097 0 gusting 1 13.9
2020-Jan-24 08:00 157 1 gusting 2 13.9
2020-Jan-24 07:54 128 0 gusting 0 14.4
2020-Jan-24 07:48 350 14.4
2020-Jan-24 07:42 349 14.4
2020-Jan-24 07:36 351 0 gusting 2 14.4
2020-Jan-24 07:30 032 14.4
2020-Jan-24 07:24 012 1 gusting 3 14.4
2020-Jan-24 07:18 008 1 gusting 4 15.0
2020-Jan-24 07:12 358 3 gusting 4 15.0
2020-Jan-24 07:06 025 1 gusting 2 15.0
2020-Jan-24 07:00 014 1 gusting 2 15.0
2020-Jan-24 06:54 358 1 gusting 1 15.0
2020-Jan-24 06:48 008 0 gusting 2 15.0
2020-Jan-24 06:42 318 1 gusting 3 15.0
2020-Jan-24 06:36 002 3 gusting 5 15.0
2020-Jan-24 06:30 311 5 gusting 6 14.4
2020-Jan-24 06:24 021 1 gusting 2 13.3
2020-Jan-24 06:18 078 14.4
2020-Jan-24 06:12 075 14.4
2020-Jan-24 06:06 089 0 gusting 1 15.0
2020-Jan-24 06:00 114 15.0
2020-Jan-24 05:54 030 14.4
2020-Jan-24 05:48 038 0 gusting 2 15.0
2020-Jan-24 05:42 053 0 gusting 1 15.0
2020-Jan-24 05:36 017 1 gusting 2 15.0
2020-Jan-24 05:30 013 2 gusting 3 15.0
2020-Jan-24 05:24 006 1 gusting 1 15.0
2020-Jan-24 05:18 037 0 gusting 0 15.0
2020-Jan-24 05:12 103 15.0
2020-Jan-24 05:06 020 1 gusting 1 15.0
2020-Jan-24 05:00 089 0 gusting 2 15.0
2020-Jan-24 04:54 101 1 gusting 1 15.6
2020-Jan-24 04:48 070 15.6
2020-Jan-24 04:42 067 15.6
2020-Jan-24 04:36 254 15.6
2020-Jan-24 04:30 031 1 gusting 1 15.6
2020-Jan-24 04:24 044 15.6
2020-Jan-24 04:18 060 0 gusting 2 16.1
2020-Jan-24 04:12 010 1 gusting 4 16.1
2020-Jan-24 04:06 318 3 gusting 5 15.6
2020-Jan-24 04:00 065 1 gusting 4 15.6
2020-Jan-24 03:54 128 3 gusting 6 15.6
2020-Jan-24 03:48 136 2 gusting 6 15.6
2020-Jan-24 03:42 093 3 gusting 5 15.0
2020-Jan-24 03:36 099 2 gusting 4 15.0
2020-Jan-24 03:30 095 1 gusting 4 15.0
2020-Jan-24 03:24 007 0 gusting 4 15.0
2020-Jan-24 03:18 089 2 gusting 6 15.6
2020-Jan-24 03:12 069 0 gusting 1 15.6
2020-Jan-24 03:06 089 0 gusting 3 15.6
2020-Jan-24 03:00 163 2 gusting 3 15.6
2020-Jan-24 02:54 121 1 gusting 5 16.1
2020-Jan-24 02:48 155 5 gusting 13 16.7
2020-Jan-24 02:42 202 4 gusting 13 15.6
2020-Jan-24 02:36 271 1 gusting 2 13.9
2020-Jan-24 02:30 051 13.9
2020-Jan-24 02:24 074 0 gusting 2 13.9
2020-Jan-24 02:18 035 13.3
2020-Jan-24 02:12 033 2 gusting 3 13.3
2020-Jan-24 02:06 097 2 gusting 5 13.3
2020-Jan-24 02:00 100 1 gusting 6 13.3
2020-Jan-24 01:54 093 3 gusting 6 13.3
2020-Jan-24 01:48 079 0 gusting 3 13.3
2020-Jan-24 01:42 061 0 gusting 2 13.3
2020-Jan-24 01:36 065 0 gusting 3 13.3
2020-Jan-24 01:30 050 0 gusting 1 12.8
2020-Jan-24 01:24 144 12.8
2020-Jan-24 01:18 112 0 gusting 1 12.8
2020-Jan-24 01:12 087 1 gusting 3 12.8
2020-Jan-24 01:06 103 1 gusting 6 12.8
2020-Jan-24 01:00 023 0 gusting 3 12.8
2020-Jan-24 00:54 088 0 gusting 3 12.8
2020-Jan-24 00:48 132 1 gusting 3 12.8
2020-Jan-24 00:42 064 1 gusting 3 12.8
2020-Jan-24 00:36 075 1 gusting 4 12.8
2020-Jan-24 00:30 212 1 gusting 4 12.8
2020-Jan-24 00:24 223 0 gusting 3 12.8
2020-Jan-24 00:18 193 0 gusting 3 12.8
2020-Jan-24 00:12 028 1 gusting 5 12.8
2020-Jan-24 00:06 104 2 gusting 6 12.8
2020-Jan-24 00:00 094 3 gusting 6 12.2
2020-Jan-23 23:48 065 0 gusting 3 12.2
2020-Jan-23 23:42 032 4 gusting 6 12.2
2020-Jan-23 23:36 007 2 gusting 4 12.2
2020-Jan-23 23:30 353 3 gusting 6 11.7
2020-Jan-23 23:24 354 4 gusting 6 11.7
2020-Jan-23 23:18 003 3 gusting 5 11.7
2020-Jan-23 23:12 003 3 gusting 5 11.7
2020-Jan-23 23:06 307 3 gusting 5 11.7
2020-Jan-23 23:00 025 5 gusting 7 11.7
2020-Jan-23 22:54 035 3 gusting 8 11.7
2020-Jan-23 22:48 011 3 gusting 6 11.7
2020-Jan-23 22:42 075 1 gusting 3 11.7
2020-Jan-23 22:36 095 1 gusting 6 11.1
2020-Jan-23 22:30 097 1 gusting 5 11.1
2020-Jan-23 22:24 098 1 gusting 5 11.1
2020-Jan-23 22:18 113 1 gusting 6 11.1
2020-Jan-23 22:12 092 3 gusting 6 11.1
2020-Jan-23 22:06 103 1 gusting 6 11.1
2020-Jan-23 22:00 104 1 gusting 5 11.1
2020-Jan-23 21:54 087 2 gusting 5 11.1
2020-Jan-23 21:48 107 2 gusting 6 11.1
2020-Jan-23 21:42 105 3 gusting 7 11.1
2020-Jan-23 21:36 095 4 gusting 6 11.1
2020-Jan-23 21:30 094 3 gusting 7 11.1
2020-Jan-23 21:24 103 5 gusting 8 11.7
2020-Jan-23 21:18 101 4 gusting 8 11.7
2020-Jan-23 21:12 091 5 gusting 8 11.7
2020-Jan-23 21:06 102 4 gusting 9 11.7
2020-Jan-23 21:00 108 4 gusting 7 11.7
2020-Jan-23 20:54 110 3 gusting 8 11.7
2020-Jan-23 20:48 107 5 gusting 9 11.7
2020-Jan-23 20:42 112 5 gusting 7 11.7
2020-Jan-23 20:36 113 3 gusting 7 11.7
2020-Jan-23 20:30 113 3 gusting 6 11.7
2020-Jan-23 20:24 115 3 gusting 7 11.7
2020-Jan-23 20:18 111 3 gusting 6 11.7
2020-Jan-23 20:12 123 2 gusting 7 11.7
2020-Jan-23 20:06 122 2 gusting 6 11.7
2020-Jan-23 20:00 098 5 gusting 7 11.7
2020-Jan-23 19:54 101 4 gusting 6 11.7
2020-Jan-23 19:48 103 3 gusting 6 11.7
2020-Jan-23 19:42 098 3 gusting 6 11.7
2020-Jan-23 19:36 101 5 gusting 6 11.7
2020-Jan-23 19:30 113 5 gusting 6 11.7
2020-Jan-23 19:24 103 5 gusting 8 11.7
2020-Jan-23 19:18 104 4 gusting 8 11.7
2020-Jan-23 19:12 109 5 gusting 7 11.7
2020-Jan-23 19:06 096 5 gusting 8 11.7
2020-Jan-23 19:00 097 4 gusting 7 11.7
2020-Jan-23 18:54 096 5 gusting 8 11.7
2020-Jan-23 18:48 101 4 gusting 8 11.7
2020-Jan-23 18:42 103 5 gusting 7 11.7
2020-Jan-23 18:36 107 5 gusting 8 11.7
2020-Jan-23 18:30 104 5 gusting 8 11.7
2020-Jan-23 18:24 099 4 gusting 10 11.7
2020-Jan-23 18:18 105 4 gusting 8 11.7
2020-Jan-23 18:12 109 5 gusting 10 11.7
2020-Jan-23 18:06 105 5 gusting 7 11.7
2020-Jan-23 18:00 096 4 gusting 7 11.7
2020-Jan-23 17:54 099 5 gusting 7 11.7
2020-Jan-23 17:48 100 4 gusting 6 11.7
2020-Jan-23 17:42 104 2 gusting 6 11.7
2020-Jan-23 17:36 100 5 gusting 7 11.7
2020-Jan-23 17:30 094 1 gusting 7 12.2
2020-Jan-23 17:24 101 5 gusting 8 11.7
2020-Jan-23 17:18 101 5 gusting 10 11.7
2020-Jan-23 17:12 100 5 gusting 9 11.7
2020-Jan-23 17:06 093 6 gusting 10 11.1
2020-Jan-23 17:00 101 5 gusting 9 11.1
2020-Jan-23 16:54 107 4 gusting 8 11.1
2020-Jan-23 16:48 086 3 gusting 7 11.1
2020-Jan-23 16:42 090 1 gusting 6 11.1
2020-Jan-23 16:36 095 2 gusting 6 10.6
2020-Jan-23 16:30 034 1 gusting 6 10.6
2020-Jan-23 16:24 104 3 gusting 7 10.6
2020-Jan-23 16:18 104 5 gusting 10 10.6
2020-Jan-23 16:12 089 5 gusting 10 10.0
2020-Jan-23 16:06 095 5 gusting 7 10.0
2020-Jan-23 16:00 105 3 gusting 6 10.0
2020-Jan-23 15:54 105 2 gusting 7 10.0
2020-Jan-23 15:48 105 1 gusting 6 10.0
2020-Jan-23 15:42 099 4 gusting 9 10.0
2020-Jan-23 15:36 108 3 gusting 6 10.0
2020-Jan-23 15:30 090 3 gusting 8 10.0
2020-Jan-23 15:24 092 2 gusting 6 9.4
2020-Jan-23 15:18 090 4 gusting 10 9.4
2020-Jan-23 15:12 101 5 gusting 8 9.4
2020-Jan-23 15:06 091 3 gusting 8 9.4
2020-Jan-23 15:00 093 3 gusting 10 9.4
2020-Jan-23 14:54 094 4 gusting 9 9.4
2020-Jan-23 14:48 096 3 gusting 7 9.4
2020-Jan-23 14:42 086 4 gusting 9 9.4
2020-Jan-23 14:36 107 5 gusting 9 9.4
2020-Jan-23 14:30 101 5 gusting 8 9.4
2020-Jan-23 14:24 101 2 gusting 11 9.4
2020-Jan-23 14:18 094 5 gusting 7 9.4
2020-Jan-23 14:12 106 4 gusting 10 9.4
2020-Jan-23 14:06 095 4 gusting 7 9.4
2020-Jan-23 14:00 093 2 gusting 6 9.4